Showing default

CENTISPACE-1 S14, 62583

Orbit data source: Space-Track

CENTISPACE-1 S14, 62583 is a payload satellite owned by Centispace (CN) in LEO that was launched on Mon, 13 Jan 2025 UTC via a JIELONG-3 launch vehicle from the Yellow Sea Launch Area, China (YSLA). Payload-class satellites include a variety of spacecraft equipped with specific instruments for various scientific and technological missions. These include communications satellites like Starlink; space stations such as the ISS; scientific satellites like the Hubble; Earth observation satellites from companies like Planet Labs, Umbra, and HawkEye 360; GPS; miniature CubeSats for education and research; and military/defense satellites.

Loading next visibility...
Identifier
62583, 2025-007J
Orbit
LEO
Country
Flag of CNCN / PRC
Related business
Manufacturer
DFH Shenzhen
Mission
Operational Commercial Nav/Com
Bus & Motor
WK01, Unknown motor
Mass
140 kg wet, 140 kg dry
Launch date (UTC)
2025-01-13 (10 months ago)
Launch vehicle
JIELONG-3
Launch site
Yellow Sea Launch Area, China (YSLA)
Object type
Payload
Rocket body
Debris
Shape & HBR
Box + 2 Pan, 1.0 m
Radar Cross Section
0.833 m², Medium (>0.1 m² and < 1m²)

Expand to show TLE details & history
Last TLE update: 17 hours ago

TLE from 17 hours ago
0 CENTISPACE-1 S14
1 62583U 25007J   25305.52656382  .00000145  00000-0  97716-4 0  9994
2 62583  54.9829  31.7504 0049224  99.2725 261.3829 14.39286074 42885
Epoch: 2025-11-01T12:38Z
TLE epoch observation values (Epoch: 2025-11-01T12:38:15.114Z)
Latitude
-0.00006°
Longitude
161.13201°
Altitude
767.343 km
Speed
7.469 km/s
True Right ascension
02h 07m 00s
True Declination
0° 00' 00"
Sunlit
Object was in full shadow at epoch
Visualization orbit readout
Latitude
Unknown
Longitude
Unknown
Altitude
Unknown
Speed
Unknown
Apparent Right ascension
Unknown
Apparent Declination
Unknown
Sunlit
N/A
Visualization observer readout
Local Sidereal Time
01:18:02
Azimuth
Unknown
Elevation
Unknown
Doppler factor
Unknown
Orbital elements
Apogee altitude
795.966 km
Perigee altitude
725.684 km
Semi-major axis
7,138.962 km
Eccentricity
0.00492
Inclination
54.9829°
RAAN
31.7504°
Arg. of periapsis
99.2725°
True anomaly
260.82572°
Mean anomaly
261.3829°
Eccentric anomaly
261.10426°
Mean motion
3.59824 °/min
Orbital period
100.05 mins
BSTAR
0.000097716
Loading maneuver chart data...
Computing Atmospheric mass density...
Loading historical data...
Loading historical data...
Loading historical data...
Loading historical data...
Loading historical data...
Loading historical data...
Loading historical data...

Documentation

Showing up to 5 results
|